Date String (YYYY-MM-DD hh:mm:ss) UTC,Instrument flags,absolute air pressure of the measurement (hPa),sample flow rate (lpm),inlet stack bypass flow (lpm),air temperature of the measurement (°C),ambient temperature measured by the external sensor (°C),aerosol sample conditioner tube jacket temperature (°C),OPC LED temperature (°C),internal box temperature (°C),relative humidity of the measurement (%),span deviation,mass concentration of particles derived from Lorenz-Mie calculation of OPC scattering (μg/m³),mass concentration of particles derived from Lorenz-Mie calculation of OPC scattering (μg/m³),mass concentration of particles derived from Lorenz-Mie calculation of OPC scattering (μg/m³)
DateTimeUTC,F1_M11,P_M11,Q1_M11,Q2_M11,T1_M11,T2_M11,T3_M11,T4_M11,T5_M11,U1_M11,ZSPAN_M11,X2_M11,X0_M11,X1_M11
2024-04-29 02:00:00,SystemResetWarning,0825.1,5.00,000.00,026.8,026.1,000.0,035.3,028.6,017.9,0000.0,0000.90,0002.12,0000.56
2024-04-29 02:01:00,SystemResetWarning,0825.0,5.00,000.00,026.8,026.1,000.0,035.3,028.6,017.6,0000.0,0000.91,0002.12,0000.57
2024-04-29 02:02:00,SystemResetWarning,0825.0,5.01,000.00,026.8,026.1,000.0,035.3,028.7,017.3,0000.0,0000.90,0002.01,0000.57
2024-04-29 02:03:00,SystemResetWarning,0825.0,5.00,000.00,026.8,026.1,000.0,035.3,028.7,017.4,0000.0,0000.88,0001.92,0000.57
2024-04-29 02:04:00,SystemResetWarning,0824.9,4.99,000.00,026.8,026.1,000.0,035.3,028.7,017.4,0000.0,0000.90,0001.95,0000.56
2024-04-29 02:05:00,SystemResetWarning,0824.9,5.00,000.00,026.8,026.1,000.0,035.3,028.7,017.3,0000.0,0000.84,0001.76,0000.55
2024-04-29 02:06:00,SystemResetWarning,0824.9,5.00,000.00,026.9,026.1,000.0,035.3,028.7,017.3,0000.0,0000.83,0001.73,0000.55
2024-04-29 02:07:00,SystemResetWarning,0824.9,5.00,000.00,026.9,026.1,000.0,035.3,028.7,017.6,0000.0,0000.80,0001.70,0000.53
2024-04-29 02:08:00,SystemResetWarning,0824.9,5.00,000.00,026.9,026.2,000.0,035.3,028.7,018.0,0000.0,0000.80,0001.77,0000.53
2024-04-29 02:09:00,SystemResetWarning,0824.9,5.01,000.00,026.9,026.2,000.0,035.3,028.7,017.7,0000.0,0000.81,0001.82,0000.53
2024-04-29 02:10:00,SystemResetWarning,0824.9,5.01,000.00,026.9,026.2,000.0,035.3,028.7,017.4,0000.0,0000.80,0001.67,0000.53
2024-04-29 02:11:00,SystemResetWarning,0824.9,5.00,000.00,026.9,026.2,000.0,035.3,028.7,017.0,0000.0,0000.80,0001.50,0000.52
2024-04-29 02:12:00,SystemResetWarning,0824.9,5.00,000.00,026.9,026.2,000.0,035.4,028.7,016.9,0000.0,0000.80,0001.51,0000.51
2024-04-29 02:13:00,SystemResetWarning,0824.9,5.00,000.00,026.9,026.2,000.0,035.4,028.7,016.7,0000.0,0000.79,0001.52,0000.51
2024-04-29 02:14:00,SystemResetWarning,0824.9,5.00,000.00,026.9,026.2,000.0,035.4,028.7,016.8,0000.0,0000.81,0001.61,0000.51
2024-04-29 02:15:00,SystemResetWarning,0824.9,5.00,000.00,026.9,026.1,000.0,035.4,028.7,016.9,0000.0,0000.83,0001.72,0000.51
2024-04-29 02:16:00,SystemResetWarning,0824.9,5.00,000.00,026.9,026.1,000.0,035.4,028.7,017.0,0000.0,0000.84,0001.87,0000.51
2024-04-29 02:17:00,SystemResetWarning,0825.1,5.01,000.00,026.9,026.1,000.0,035.4,028.7,017.2,0000.0,0000.84,0002.25,0000.50
2024-04-29 02:18:00,SystemResetWarning,0825.1,5.01,000.00,026.9,026.1,000.0,035.4,028.7,017.5,0000.0,0000.84,0002.75,0000.49
2024-04-29 02:19:00,SystemResetWarning,0825.2,4.99,000.00,026.9,026.1,000.0,035.4,028.7,017.6,0000.0,0000.87,0003.71,0000.49
2024-04-29 02:20:00,SystemResetWarning,0825.2,4.99,000.00,026.9,026.1,000.0,035.4,028.7,017.6,0000.0,0000.89,0003.72,0000.48
2024-04-29 02:21:00,SystemResetWarning,0825.3,5.00,000.00,026.9,026.1,000.0,035.4,028.7,017.4,0000.0,0000.88,0003.63,0000.48
2024-04-29 02:22:00,SystemResetWarning,0825.3,5.01,000.00,026.9,026.1,000.0,035.4,028.7,017.2,0000.0,0000.86,0003.56,0000.48
2024-04-29 02:23:00,SystemResetWarning,0825.4,5.01,000.00,026.9,026.1,000.0,035.4,028.7,017.1,0000.0,0000.84,0003.51,0000.48
2024-04-29 02:24:00,SystemResetWarning,0825.3,4.99,000.00,026.9,026.1,000.0,035.4,028.7,017.0,0000.0,0000.84,0003.50,0000.49
2024-04-29 02:25:00,SystemResetWarning,0825.4,4.99,000.00,026.9,026.1,000.0,035.4,028.7,016.9,0000.0,0000.85,0003.50,0000.49
2024-04-29 02:26:00,SystemResetWarning,0825.2,5.00,000.00,026.9,026.1,000.0,035.4,028.7,017.0,0000.0,0000.83,0003.41,0000.47
2024-04-29 02:27:00,SystemResetWarning,0825.2,5.02,000.00,026.9,026.1,000.0,035.4,028.7,017.0,0000.0,0000.84,0003.33,0000.47
2024-04-29 02:28:00,SystemResetWarning,0825.3,5.00,000.00,026.9,026.1,000.0,035.4,028.7,017.1,0000.0,0000.82,0003.11,0000.47
2024-04-29 02:29:00,SystemResetWarning,0825.3,4.99,000.00,026.9,026.1,000.0,035.4,028.7,017.0,0000.0,0000.80,0003.52,0000.48
2024-04-29 02:30:00,SystemResetWarning,0825.3,5.00,000.00,026.9,026.2,000.0,035.4,028.7,016.8,0000.0,0000.80,0002.37,0000.48
2024-04-29 02:31:00,SystemResetWarning,0825.3,5.00,000.00,026.9,026.2,000.0,035.4,028.7,017.1,0000.0,0000.79,0002.35,0000.48
2024-04-29 02:32:00,SystemResetWarning,0825.4,5.00,000.00,026.9,026.2,000.0,035.4,028.7,017.0,0000.0,0000.81,0002.39,0000.49
2024-04-29 02:33:00,SystemResetWarning,0825.4,4.99,000.00,026.9,026.2,000.0,035.4,028.7,016.5,0000.0,0000.82,0002.41,0000.48
2024-04-29 02:34:00,SystemResetWarning,0825.5,4.99,000.00,026.9,026.1,000.0,035.4,028.7,017.1,0000.0,0000.84,0002.49,0000.47
2024-04-29 02:35:00,SystemResetWarning,0825.4,5.00,000.00,026.7,024.6,000.0,035.5,027.8,017.6,0000.0,0000.87,0002.59,0000.47
2024-04-29 02:36:00,SystemResetWarning,0825.4,5.00,000.00,026.2,022.3,000.0,035.4,026.5,018.0,0000.0,0000.86,0002.57,0000.48
2024-04-29 02:37:00,SystemResetWarning,0825.4,5.00,000.00,025.7,021.8,000.0,035.3,026.0,018.8,0000.0,0000.87,0002.58,0000.49
2024-04-29 02:38:00,SystemResetWarning,0825.4,5.01,000.00,025.5,022.1,000.0,035.0,026.2,018.9,0000.0,0000.84,0002.52,0000.49
2024-04-29 02:39:00,SystemResetWarning,0825.5,5.00,000.00,025.5,022.6,000.0,034.9,026.6,018.9,0000.0,0000.80,0002.22,0000.49
2024-04-29 02:40:00,SystemResetWarning,0825.5,5.00,000.00,025.5,023.0,000.0,034.7,026.8,018.7,0000.0,0000.79,0001.42,0000.48
2024-04-29 02:41:00,SystemResetWarning,0825.6,5.00,000.00,025.5,023.3,000.0,034.6,027.0,017.6,0000.0,0000.78,0001.41,0000.48
2024-04-29 02:42:00,SystemResetWarning,0825.6,5.00,000.00,025.5,023.6,000.0,034.5,027.1,017.3,0000.0,0000.80,0001.52,0000.48
2024-04-29 02:43:00,SystemResetWarning,0825.6,5.00,000.00,025.5,023.9,000.0,034.5,027.2,017.5,0000.0,0000.78,0001.60,0000.47
2024-04-29 02:44:00,SystemResetWarning,0825.6,4.99,000.00,025.5,024.1,000.0,034.4,027.3,018.3,0000.0,0000.77,0001.69,0000.48
2024-04-29 02:45:00,SystemResetWarning,0825.6,5.00,000.00,025.5,024.3,000.0,034.4,027.3,019.3,0000.0,0000.79,0001.66,0000.48
2024-04-29 02:46:00,SystemResetWarning,0825.6,5.00,000.00,025.6,024.4,000.0,034.4,027.4,019.4,0000.0,0000.79,0001.67,0000.49
2024-04-29 02:47:00,SystemResetWarning,0825.7,5.00,000.00,025.6,024.6,000.0,034.3,027.4,019.2,0000.0,0000.81,0001.74,0000.48
2024-04-29 02:48:00,SystemResetWarning,0825.6,5.00,000.00,025.6,024.7,000.0,034.3,027.5,019.2,0000.0,0000.82,0001.76,0000.48
2024-04-29 02:49:00,SystemResetWarning,0825.6,5.00,000.00,025.6,024.7,000.0,034.3,027.5,019.5,0000.0,0000.84,0001.81,0000.49
2024-04-29 02:50:00,SystemResetWarning,0825.6,5.00,000.00,025.7,024.8,000.0,034.3,027.5,019.3,0000.0,0000.88,0001.89,0000.51
2024-04-29 02:51:00,SystemResetWarning,0825.6,5.00,000.00,025.7,024.9,000.0,034.3,027.6,019.3,0000.0,0000.91,0001.92,0000.52
2024-04-29 02:52:00,SystemResetWarning,0825.6,5.00,000.00,025.7,024.9,000.0,034.3,027.6,019.4,0000.0,0000.92,0001.94,0000.53
2024-04-29 02:53:00,SystemResetWarning,0825.6,5.01,000.00,025.7,024.9,000.0,034.3,027.6,019.3,0000.0,0000.89,0001.81,0000.54
2024-04-29 02:54:00,SystemResetWarning,0825.7,5.01,000.00,025.7,025.0,000.0,034.3,027.6,019.3,0000.0,0000.92,0001.75,0000.56
2024-04-29 02:55:00,SystemResetWarning,0825.7,4.98,000.00,025.8,025.0,000.0,034.3,027.7,019.6,0000.0,0000.96,0001.71,0000.58
2024-04-29 02:56:00,SystemResetWarning,0825.8,5.00,000.00,025.8,025.0,000.0,034.3,027.7,019.9,0000.0,0000.96,0001.75,0000.59
2024-04-29 02:57:00,SystemResetWarning,0825.8,5.02,000.00,025.8,025.1,000.0,034.3,027.7,019.9,0000.0,0000.97,0001.77,0000.60
2024-04-29 02:58:00,SystemResetWarning,0825.8,5.00,000.00,025.8,025.1,000.0,034.3,027.7,019.7,0000.0,0000.97,0001.74,0000.61
2024-04-29 02:59:00,SystemResetWarning,0825.8,5.00,000.00,025.8,025.1,000.0,034.3,027.8,019.6,0000.0,0001.02,0001.93,0000.63
